Location: *
(46.1200°N, 11.2700°E)
Time: 16:16:24
(UTC+00:00)

Cosmos 2333 Rocket - Pass Details

Date: 02 March 2021
Orbit: 837 x 864 km, 70.8° (Epoch: 11 April)

Event Time Altitude Azimuth Distance (km) Brightness Sun altitude
Rises 20:43:49 0° 239° (WSW) 3,396 5.6 -37.4°
Reaches altitude 10° 20:46:33 10° 250° (WSW) 2,468 4.9 -37.8°
Enters shadow 20:50:49 29° 298° (WNW) 1,519 3.9 -38.4°
Exits shadow 20:56:42 - 12° (NNE) 2,574 4.9 -39.2°
Sets 20:59:16 0° 22° (NNE) 3,441 5.6 -39.5°
